Location: ?astrovice
(49.6513°N, 14.9287°E)
Time: 06:07:12
(UTC+00:00)

BEESAT - Pass Details

Date: 25 October 2021
Orbit: 700 x 707 km, 98.6° (Epoch: 06 December)

Event Time Altitude Azimuth Distance (km) Brightness Sun altitude
Rises 03:45:04 0° 104° (ESE) 3,085 ? -18.8°
Reaches altitude 10° 03:48:40 10° 76° (ENE) 2,172 ? -18.2°
Maximum altitude 03:50:32 12° 52° (NE) 2,023 ? -17.9°
Drops below altitude 10° 03:52:23 10° 29° (NNE) 2,177 ? -17.6°
Sets 03:56:00 0° 0° (N) 3,101 ? -17.0°
